KMTN

Martin State  Airport

Baltimore, Maryland, USA
Issued Wind Visibility Ceiling Temperature Dew Point Humidity Barometer
Nov-19
01:45 UTC
160°
8 KTS
10 miles Overcast
12,000' AGL
14° C
57° F
C
48° F
72% 29.51" Hg
999 hPa
VFR
Nov-19
00:45 UTC
160°
8 KTS
10 miles Overcast
12,000' AGL
13° C
55° F
C
48° F
77% 29.55" Hg
1001 hPa
VFR
Nov-18
23:45 UTC
160°
13 KTS
Gust 17 KTS
10 miles Overcast
12,000' AGL
13° C
55° F
C
46° F
72% 29.57" Hg
1001 hPa
VFR
Nov-18
22:45 UTC
150°
10 KTS
7 miles Broken
10,000' AGL
12° C
54° F
C
48° F
82% 29.61" Hg
1003 hPa
VFR
Nov-18
21:45 UTC
150°
10 KTS
7 miles Overcast
12,000' AGL
13° C
55° F
C
45° F
67% 29.62" Hg
1003 hPa
VFR
Nov-18
20:45 UTC
140°
10 KTS
6 miles Overcast
10,000' AGL
12° C
54° F
C
48° F
82% 29.65" Hg
1004 hPa
VFR
Nov-18
19:45 UTC
140°
12 KTS
10 miles Overcast
12,000' AGL
13° C
55° F
C
46° F
72% 29.66" Hg
1004 hPa
VFR
Nov-18
18:45 UTC
140°
14 KTS
10 miles Broken
12,000' AGL
12° C
54° F
C
46° F
77% 29.71" Hg
1006 hPa
VFR
Nov-18
17:45 UTC
120°
14 KTS
10 miles Broken
8,500' AGL
13° C
55° F
C
45° F
67% 29.74" Hg
1007 hPa
VFR
Nov-18
16:45 UTC
120°
9 KTS
10 miles Broken
9,500' AGL
12° C
54° F
C
43° F
67% 29.79" Hg
1009 hPa
VFR
Nov-18
15:45 UTC
180°
7 KTS
10 miles Broken
9,000' AGL
11° C
52° F
C
39° F
62% 29.85" Hg
1011 hPa
VFR
Nov-18
14:45 UTC
150°
9 KTS
Gust 17 KTS
10 miles Broken
10,000' AGL
10° C
50° F
C
39° F
67% 29.89" Hg
1012 hPa
VFR
Nov-18
13:45 UTC
180°
9 KTS
Gust 16 KTS
10 miles Broken
10,000' AGL
C
48° F
C
37° F
66% 29.92" Hg
1013 hPa
VFR
Nov-18
12:50 UTC
170°
4 KTS
10 miles Broken
10,000' AGL
C
46° F
C
37° F
71% 29.93" Hg
1014 hPa
VFR
Nov-18
11:45 UTC
180°
4 KTS
10 miles Broken
10,000' AGL
C
43° F
C
36° F
76% 29.96" Hg
1015 hPa
VFR
Nov-18
10:45 UTC
10 miles   C
34° F
C
34° F
100% 29.99" Hg
1016 hPa
VFR
Nov-18
10:30 UTC
10 miles         30" Hg
1016 hPa
VFR
Nov-18
10:09 UTC
10 miles         30.02" Hg
1017 hPa
VFR
Nov-18
09:48 UTC
10 miles         30.01" Hg
1016 hPa
VFR
Nov-18
09:30 UTC
10 miles         30.01" Hg
1016 hPa
VFR
Nov-18
09:09 UTC
10 miles         30.02" Hg
1017 hPa
VFR
Nov-18
08:48 UTC
10 miles         30.03" Hg
1017 hPa
VFR
Nov-18
08:30 UTC
10 miles         30.04" Hg
1017 hPa
VFR
Nov-18
08:09 UTC
10 miles   C
34° F
C
32° F
93% 30.04" Hg
1017 hPa
VFR
Nov-18
07:48 UTC
10 miles   C
34° F
C
34° F
100% 30.04" Hg
1017 hPa
VFR
Nov-18
07:30 UTC
10 miles   C
34° F
C
32° F
93% 30.05" Hg
1018 hPa
VFR
Nov-18
07:09 UTC
10 miles   C
34° F
C
32° F
93% 30.06" Hg
1018 hPa
VFR
Nov-18
06:48 UTC
10 miles   C
34° F
C
32° F
93% 30.07" Hg
1018 hPa
VFR
Nov-18
06:30 UTC
10 miles   C
34° F
C
32° F
93% 30.07" Hg
1018 hPa
VFR
Nov-18
06:09 UTC
10 miles   C
34° F
C
32° F
93% 30.08" Hg
1019 hPa
VFR
Nov-18
05:48 UTC
10 miles   C
34° F
C
32° F
93% 30.1" Hg
1019 hPa
VFR
Nov-18
05:30 UTC
10 miles   C
34° F
C
32° F
93% 30.1" Hg
1019 hPa
VFR
Nov-18
05:09 UTC
10 miles   C
34° F
C
32° F
93% 30.11" Hg
1020 hPa
VFR
Nov-18
04:48 UTC
290°
3 KTS
10 miles   C
34° F
C
32° F
93% 30.12" Hg
1020 hPa
VFR
Nov-18
04:30 UTC
10 miles   C
34° F
C
32° F
93% 30.12" Hg
1020 hPa
VFR
Nov-18
04:09 UTC
10 miles   C
36° F
C
32° F
87% 30.12" Hg
1020 hPa
VFR
Nov-18
03:48 UTC
10 miles   C
36° F
C
32° F
87% 30.12" Hg
1020 hPa
VFR
Nov-18
03:30 UTC
10 miles   C
36° F
C
32° F
87% 30.12" Hg
1020 hPa
VFR
Nov-18
03:09 UTC
10 miles   C
36° F
C
32° F
87% 30.12" Hg
1020 hPa
VFR